sat.trackr.live / text

‹ back to catalog

ONEWEB-0330

NORAD 49108 · 2021-075AK

PAYLOAD ACTIVE UNKNOWN

§ Identity

Operator
Country
UK
Launch date
2021-08-21
Launch site
TYMSC
Launch vehicle
Mass (kg)
RCS (m²)

Purposes: comms

External: N2YO · Heavens-Above · Gunter

§ Orbital elements

Epoch: 2026-09-19T13:46:34.506336Z

Period
109.29 min
Inclination
87.9206°
Eccentricity
0.0001774
Mean motion
13.17647974 rev/d
Perigee alt
1,192.4 km
Apogee alt
1,195.1 km
Semi-major
7,571.9 km
B*
-3.6490e-5
RAAN
347.1398°
Arg perigee
104.9670°
Mean anomaly
255.1658°
Rev number
24,605

§ Raw data

ONEWEB-03301 49108U 21075AK  26262.57401049 -.00000001  00000+0 -36490-4 0  99932 49108  87.9206 347.1398 0001774 104.9670 255.1658 13.17647974246055

JSON: /api/v1/satellites/49108 · /tle

For live sub-satellite position, see the globe view (requires WebGL).

§ Visibility from observer

Set your observer location to see the next 7 days of passes ≥ 10°. The values pass through the URL so the page stays shareable.

No JS? Fill the form by hand. The geolocation button needs JavaScript.